RH
51 47 40 38 38 37 34 29 23 17 14 11 9 7 7 8 9 10 10 10 9 10 12 15 19 20 19 19 20 23 23 20 19 20 19 19 18 19 20 20 19 19 18 18 18 17 17 20 20 20 22 21 23 28 28 26 24 22 23 24 24 25 27 27 27 27 27 28 29 30 32 32 32 36 41 42 44 46 49 54 54 52 50 52 62 60 40
48 44 39 38 38 35 30 21 15 12 10 8 7 7 8 9 10 11 11 10 9 11 12 13 17 22 21 19 19 20 21 20 19 20 19 18 18 19 20 19 16 18 20 19 17 16 15 17 17 19 22 23 26 30 28 26 25 23 24 24 23 25 29 30 30 30 30 32 34 34 33 33 33 38 44 44 46 51 53 53 53 52 50 54 61 56 40
44 43 41 38 34 27 19 13 11 10 8 7 7 8 9 10 10 10 11 11 9 11 14 14 18 25 23 17 17 18 19 19 19 19 19 18 17 17 18 18 17 19 20 19 19 18 15 15 17 19 20 22 26 28 27 27 26 26 28 27 23 26 30 30 30 33 35 34 35 34 35 37 36 39 43 44 46 51 51 52 53 53 54 56 59 54 42
46 44 38 31 23 16 12 10 9 8 7 8 9 9 9 10 10 10 11 11 10 11 14 13 16 24 21 14 15 17 16 16 18 18 17 17 16 16 17 17 17 18 18 17 19 20 18 17 18 19 20 22 26 29 28 28 29 29 30 27 27 30 31 30 31 34 34 31 31 34 37 38 36 38 42 45 49 50 53 57 56 56 59 57 54 56 49
42 35 26 19 14 11 9 8 7 8 9 9 8 8 9 10 11 12 11 10 10 11 13 12 12 16 14 10 13 16 15 15 15 17 18 17 16 15 16 17 15 15 16 16 18 21 21 20 20 20 22 24 26 28 30 31 31 31 29 27 29 31 30 31 33 33 32 31 32 34 38 37 37 38 42 47 52 52 54 58 55 56 63 57 49 55 55
28 21 15 12 10 8 8 8 9 10 9 8 8 8 9 10 11 12 11 10 11 10 11 13 13 13 13 13 14 15 16 15 13 15 17 17 17 15 14 17 18 17 18 16 17 21 21 21 21 22 24 26 25 25 30 33 33 30 28 26 29 31 32 33 34 34 33 34 34 36 39 39 39 43 46 49 54 55 54 55 53 56 61 55 48 52 55
16 12 10 9 8 8 8 9 9 9 7 8 8 8 9 10 10 11 11 11 11 12 12 14 14 14 15 15 14 14 16 15 13 15 17 16 17 15 12 15 20 23 22 17 17 21 19 16 20 23 24 25 24 22 25 30 32 29 27 28 28 31 36 38 38 37 35 36 38 40 42 43 44 48 51 51 53 56 55 54 54 55 56 54 51 52 53
10 9 8 8 8 9 9 8 7 7 7 7 7 8 9 10 10 10 10 9 11 14 15 14 13 13 13 11 12 14 17 16 14 16 14 12 16 17 14 17 23 27 24 19 19 22 20 15 18 22 22 23 26 23 21 27 33 31 30 32 30 30 37 42 42 38 36 38 42 44 45 47 48 49 51 51 52 54 56 55 55 56 56 55 54 54 54
8 8 8 8 8 8 7 7 7 7 7 7 8 9 9 10 11 10 9 10 12 14 15 14 13 13 13 11 12 15 18 17 15 15 14 13 16 19 18 20 25 28 26 23 22 22 22 19 19 20 20 20 22 21 20 27 36 35 34 35 33 32 39 44 45 42 40 41 44 45 45 47 49 50 51 52 53 55 57 57 56 56 54 53 55 57 56
8 8 8 7 6 6 6 6 7 7 7 8 8 8 9 10 10 10 9 10 12 13 14 13 11 12 13 13 13 14 16 18 16 14 15 17 18 19 19 19 22 24 25 25 23 22 21 21 21 21 21 20 20 21 21 27 35 38 38 40 40 40 42 45 47 48 46 45 46 45 43 45 49 49 48 49 52 53 54 54 54 52 51 53 57 57 56
7 6 6 6 6 6 6 6 7 7 7 8 8 8 9 10 9 10 10 10 12 13 13 12 11 12 14 14 15 17 19 20 18 14 15 19 21 21 21 20 20 23 24 23 22 22 22 22 23 22 22 23 24 26 27 30 35 38 41 45 48 46 45 47 49 50 50 49 46 42 41 46 48 46 45 46 46 47 48 47 48 49 50 54 57 58 61
5 5 5 5 5 6 6 6 6 7 7 7 8 8 9 9 10 10 9 9 13 14 14 14 13 13 16 17 18 20 20 21 21 17 17 20 22 22 23 21 19 21 23 21 22 23 22 23 24 26 27 27 29 31 34 37 41 41 40 45 50 48 46 49 51 51 51 50 46 44 45 46 45 44 45 45 44 46 48 48 49 52 52 55 59 63 65
5 5 5 6 6 6 6 6 6 7 7 7 7 8 8 9 10 11 10 11 15 17 16 16 16 15 17 19 20 21 22 22 23 22 22 23 23 22 23 22 21 21 22 22 22 23 24 25 28 30 31 32 33 35 40 43 44 44 41 42 47 49 47 49 50 50 49 47 46 46 44 42 40 41 42 43 46 50 52 50 52 53 55 58 62 63 61
5 5 5 5 5 5 6 6 7 8 8 9 9 10 11 12 13 15 15 15 18 19 17 18 20 19 18 20 22 23 24 24 24 24 24 25 25 23 22 23 23 23 24 22 21 23 25 28 33 35 35 34 31 32 41 45 43 44 45 43 43 46 46 45 46 47 47 48 48 46 42 40 42 45 47 48 51 55 55 53 52 53 59 63 61 58 58
5 5 5 6 6 7 7 8 9 10 11 12 13 13 14 15 16 17 17 17 19 19 17 19 21 20 19 21 23 24 24 24 24 23 23 25 25 23 23 24 25 24 24 23 26 30 29 28 32 34 32 31 28 28 37 44 41 41 44 42 40 41 43 41 42 46 48 49 51 54 55 52 50 52 54 56 57 57 55 54 55 57 61 61 59 59 60
6 6 7 8 9 10 11 11 12 13 14 14 15 15 15 15 16 16 17 18 18 18 18 18 19 20 21 22 23 23 23 24 23 22 22 24 26 25 25 25 25 26 26 25 30 36 34 31 32 31 29 29 28 28 33 37 37 38 40 41 40 41 44 43 42 47 52 54 58 64 64 59 55 56 59 58 56 54 53 55 60 61 59 58 58 59 57
9 10 11 12 13 13 14 14 14 14 15 15 15 16 16 16 16 17 18 19 18 18 19 19 20 21 21 22 23 22 21 21 20 19 20 23 26 26 26 26 28 29 28 30 34 36 35 34 33 31 32 33 30 29 31 32 33 34 36 40 42 43 46 46 47 53 59 62 66 68 64 60 58 60 61 57 52 53 56 58 60 58 54 53 53 51 49
12 13 14 14 14 15 14 14 15 15 15 16 16 17 17 17 17 17 18 18 19 19 20 21 21 21 20 20 20 19 19 20 20 20 22 25 28 29 28 28 30 30 28 32 36 35 33 34 32 30 32 34 30 29 30 30 30 32 35 41 46 50 53 54 56 62 64 66 68 68 65 64 64 63 60 54 50 55 60 59 55 51 48 46 45 45 44
14 15 15 15 15 15 15 16 16 16 17 17 17 17 17 17 17 17 18 19 19 19 20 21 21 21 20 20 19 19 20 21 22 25 27 27 28 30 30 28 28 29 30 32 34 33 30 31 33 32 31 33 32 29 27 28 31 36 40 42 46 53 57 58 61 65 66 69 72 70 67 66 63 60 56 53 55 59 58 52 48 45 43 42 42 42 42
15 15 15 15 16 16 17 17 17 17 17 17 16 16 16 17 18 18 19 20 19 19 20 20 20 21 21 21 22 23 24 25 26 29 30 28 28 29 29 29 28 29 31 30 29 31 29 29 32 33 31 33 32 28 30 36 38 41 44 45 47 52 56 60 64 65 66 71 75 73 70 65 59 55 53 53 55 55 49 43 42 42 42 42 41 41 43
16 16 17 17 17 18 18 18 18 17 17 16 16 17 18 19 20 20 20 20 19 18 20 20 20 22 23 24 25 26 27 27 28 28 28 27 29 28 27 27 27 28 29 26 25 27 27 28 32 32 30 32 32 31 37 44 45 44 46 49 53 56 57 60 65 66 67 73 74 70 64 59 53 51 50 49 47 46 43 42 42 41 40 42 42 42 42
18 18 18 18 19 19 18 18 18 18 18 19 19 20 21 21 21 20 20 19 19 20 20 20 21 23 24 26 26 26 26 26 26 27 27 27 28 27 26 26 25 25 25 23 23 24 25 28 32 32 33 38 40 42 46 48 48 50 51 52 56 58 56 57 61 63 65 67 65 58 53 49 47 46 44 43 43 43 42 42 42 41 42 43 43 41 37
18 19 19 19 19 19 19 19 19 20 20 21 22 22 22 21 20 19 20 20 21 21 21 21 21 22 24 24 24 23 23 23 23 25 26 25 26 25 24 23 23 22 21 20 20 22 26 33 36 37 43 48 47 48 51 51 52 57 57 56 57 57 55 55 57 60 60 56 53 50 47 43 42 41 41 41 41 42 41 41 41 42 42 41 39 35 31
20 20 20 20 20 20 20 21 21 22 23 23 23 22 20 20 20 20 21 21 21 21 21 21 21 21 22 22 21 21 21 21 21 21 22 23 23 23 22 21 20 20 21 22 23 27 34 39 41 43 48 50 48 50 55 55 57 61 63 62 59 56 55 55 55 57 57 52 47 44 41 39 39 39 39 39 40 40 41 42 43 41 38 35 32 29 29
22 22 22 22 22 23 23 23 23 24 23 22 22 20 19 19 20 21 22 23 22 21 21 21 21 21 21 21 20 20 20 20 21 21 21 22 22 20 20 19 20 22 25 29 34 38 40 42 44 46 49 49 49 54 59 59 60 63 64 63 59 55 54 54 53 53 53 47 41 37 35 36 38 38 37 38 39 39 40 41 41 38 33 31 29 29 29
22 23 23 24 24 24 24 24 23 23 22 21 20 19 19 20 21 22 23 23 23 21 21 22 22 21 21 21 20 20 20 20 20 21 21 21 20 18 18 20 24 29 34 39 42 42 41 43 46 49 50 51 52 56 59 60 61 64 63 58 54 52 52 51 49 48 45 41 37 35 34 34 35 36 38 39 39 38 37 37 35 32 30 30 29 29 30
22 22 22 22 22 22 21 21 20 20 20 19 19 18 19 20 21 21 22 23 23 22 21 22 21 20 21 21 20 20 20 20 21 22 21 20 19 20 23 28 33 37 40 42 42 42 42 44 47 49 51 53 55 58 61 61 63 65 63 56 52 50 49 47 46 45 42 38 36 38 39 37 36 37 38 38 38 37 35 32 30 29 30 30 30 30 31
22 21 20 19 19 18 18 17 17 17 17 18 17 18 19 20 20 20 21 21 21 20 20 20 20 20 20 21 20 21 21 22 22 22 21 20 23 27 32 36 39 40 41 42 42 43 45 47 49 51 53 54 56 59 61 63 66 65 59 51 47 45 43 42 43 43 41 39 38 40 43 42 41 40 39 38 37 35 31 29 29 29 30 31 33 35 35
20 19 18 16 16 15 15 14 15 15 15 16 16 16 17 19 19 20 20 20 20 20 19 20 20 20 21 21 22 22 23 24 23 22 23 26 31 35 38 39 39 41 44 45 45 46 49 50 51 52 54 55 56 58 61 64 65 59 51 45 42 40 39 41 42 43 42 42 42 43 45 45 44 42 40 37 35 31 29 28 29 30 31 33 35 37 37
18 17 16 15 14 13 13 12 12 12 13 13 14 14 16 17 18 18 17 18 19 18 18 19 21 21 22 22 24 25 24 24 23 25 28 33 35 37 38 39 42 45 48 49 49 49 52 52 50 51 54 54 54 56 59 59 55 49 43 40 38 38 39 43 45 46 46 46 46 47 48 47 45 41 36 33 31 30 30 31 32 34 35 35 36 36 36
15 14 13 13 13 13 12 13 12 12 12 13 12 13 14 15 16 16 15 16 16 17 18 20 21 22 23 23 25 25 24 25 26 29 32 34 35 37 39 43 47 50 50 51 51 51 52 51 49 51 53 50 48 52 55 52 47 44 42 39 38 40 44 47 50 50 50 49 49 48 47 45 41 36 31 29 29 31 32 34 36 37 37 37 37 37 35
12 11 10 11 11 11 12 13 13 13 13 13 12 13 14 14 15 15 15 16 16 17 19 20 22 24 25 25 25 25 25 27 28 30 32 34 37 41 44 47 50 52 51 52 52 51 51 49 48 49 49 45 46 53 54 49 46 44 41 39 41 45 49 52 53 52 52 52 52 48 42 37 33 30 29 29 30 32 36 38 38 37 37 37 37 37 36
11 10 10 10 10 11 11 12 13 13 13 13 14 14 14 14 15 15 16 17 17 18 20 21 23 26 26 25 25 25 25 27 29 31 35 39 42 46 48 49 50 51 50 50 50 50 48 47 46 46 45 42 45 51 50 46 44 44 43 43 46 49 52 55 56 54 53 53 52 47 40 33 29 28 29 30 31 35 41 43 41 38 37 38 37 35 34
9 9 10 10 10 11 11 11 12 13 12 13 13 14 14 15 15 16 18 18 19 20 22 23 25 27 26 24 24 25 25 29 33 36 41 44 46 46 47 47 47 48 48 48 48 47 46 44 43 45 44 42 44 48 48 44 44 45 46 47 49 50 52 53 54 54 52 49 46 42 36 31 29 29 30 32 36 41 45 45 43 42 40 38 36 33 30
8 8 9 10 10 10 10 10 12 12 12 13 13 14 14 15 16 18 20 19 20 22 22 22 25 27 26 26 29 30 31 36 40 42 44 45 44 44 44 43 44 46 46 46 45 44 45 44 43 44 45 45 46 49 47 45 46 47 48 49 50 50 50 49 49 48 45 42 39 35 30 29 30 31 33 37 43 46 44 44 45 45 41 37 33 30 28
8 7 8 9 9 10 10 10 11 11 11 13 13 14 14 15 17 19 19 19 20 21 20 21 25 28 28 30 34 36 38 42 43 43 42 41 41 41 41 41 43 45 44 43 44 44 44 42 42 44 46 47 47 47 48 48 50 50 50 51 51 52 51 50 47 43 39 36 34 31 29 30 33 36 40 44 46 46 46 47 47 43 37 33 30 28 27
9 8 7 8 9 10 10 10 11 11 12 13 13 13 15 16 17 18 20 20 21 22 21 24 30 33 35 38 41 41 43 44 43 40 39 39 39 39 39 40 43 44 42 43 45 43 40 40 43 45 45 45 45 46 48 51 52 52 52 52 51 50 51 49 45 39 35 32 30 29 29 31 34 39 43 44 44 47 51 50 48 43 38 34 33 31 31
12 10 8 8 9 10 10 10 11 12 13 13 14 16 17 18 19 22 23 24 25 27 28 32 37 40 43 45 44 42 43 43 41 38 37 38 40 38 37 38 40 40 41 44 44 38 37 43 48 48 45 43 44 47 50 52 53 52 52 50 48 48 48 45 39 36 35 36 36 37 38 38 38 39 40 40 43 48 50 47 45 44 40 37 35 33 32
14 12 12 11 11 11 12 12 13 13 14 16 17 19 21 23 25 27 28 30 32 34 38 42 44 46 46 45 43 41 40 40 40 40 38 39 39 37 36 37 37 36 40 44 41 35 37 44 48 48 47 45 45 47 49 50 50 49 48 45 44 45 44 39 36 37 40 44 48 51 52 52 51 49 47 46 47 46 43 40 41 42 40 37 34 33 33
15 15 15 15 15 15 16 16 16 17 19 20 21 23 25 28 30 32 36 39 41 42 44 47 47 45 43 42 42 41 39 39 39 39 38 38 37 35 35 36 35 34 40 44 39 35 38 42 44 47 48 45 44 46 47 46 45 44 43 41 41 41 39 37 38 41 44 47 52 55 56 58 59 58 56 54 50 45 40 39 40 42 40 37 35 35 35
16 17 17 18 19 19 20 20 21 23 24 25 27 29 32 33 35 37 41 45 47 47 47 46 44 41 40 39 40 39 38 37 37 36 36 37 36 33 35 35 33 35 41 41 36 35 39 42 45 49 47 42 43 46 45 43 42 40 37 36 37 37 38 39 41 45 50 53 56 57 58 59 59 57 54 52 50 47 45 42 41 40 39 37 37 36 36
18 19 19 20 21 22 22 23 25 26 28 30 33 36 39 40 41 42 45 47 48 47 44 42 40 38 38 38 37 36 35 36 35 34 35 36 33 32 35 37 36 37 39 36 34 37 43 47 50 49 44 41 44 45 41 39 37 34 32 34 36 39 41 42 43 47 53 57 58 57 57 56 53 51 51 51 50 48 45 42 40 39 39 38 38 38 37
21 21 22 22 23 24 24 25 27 30 35 38 39 41 44 45 46 47 48 46 44 42 39 38 37 37 36 35 35 34 34 35 34 33 33 33 31 32 36 39 38 36 35 35 37 40 45 50 50 45 40 42 44 41 37 35 34 31 33 37 41 43 44 46 47 51 56 58 57 56 53 50 47 49 51 51 49 46 42 40 40 42 41 40 40 40 39
23 23 23 24 25 25 26 27 29 33 38 43 43 44 46 48 49 50 48 44 40 39 38 38 38 38 37 36 34 33 33 32 31 31 31 30 32 36 38 37 35 34 36 40 44 45 45 47 45 40 39 41 40 36 34 34 33 34 38 41 44 45 46 46 49 54 57 57 54 51 47 45 46 50 50 48 45 43 41 40 42 43 43 42 42 41 40
25 25 25 26 28 27 28 31 35 37 40 44 47 48 47 47 48 47 44 39 38 38 38 38 38 38 36 34 32 32 32 30 29 30 31 31 32 36 36 34 36 41 44 47 50 49 46 43 40 37 38 38 36 35 36 36 36 39 43 44 44 45 46 48 53 57 57 53 48 44 43 45 49 51 49 45 43 43 44 45 46 46 45 44 43 42 42
25 25 26 28 30 31 33 36 40 41 42 44 46 47 46 43 42 41 38 37 38 38 37 37 37 37 34 32 31 31 30 28 29 31 32 31 33 34 33 34 41 47 48 49 52 51 46 41 38 36 37 37 37 37 38 38 40 45 48 47 47 47 49 53 58 57 52 47 44 44 46 49 50 49 48 46 45 45 47 49 49 49 49 48 46 44 45
25 26 27 31 34 36 38 40 42 43 44 45 44 43 41 39 37 37 37 37 37 37 37 37 36 34 33 32 31 30 29 29 31 32 32 31 34 36 37 40 47 51 50 52 53 50 43 38 37 38 39 38 38 38 39 42 45 49 51 51 50 51 54 58 58 52 46 44 45 47 49 50 50 49 48 47 47 48 49 50 51 52 52 50 49 48 49
26 28 31 35 38 40 41 41 42 44 45 44 42 39 36 35 35 35 36 36 36 37 37 36 33 32 32 31 30 30 30 31 31 32 32 34 37 39 41 46 50 51 52 52 48 41 37 37 39 40 39 39 38 40 43 47 50 51 52 52 52 54 57 57 52 47 45 47 48 49 50 49 49 48 48 49 50 51 51 52 51 50 50 49 49 48 48
29 31 34 38 40 41 41 41 43 43 42 40 38 35 33 33 34 34 34 36 37 37 36 34 32 32 31 30 31 33 34 34 34 35 37 40 44 46 48 50 51 49 48 47 41 38 38 41 41 40 40 40 41 45 48 51 52 53 54 55 57 58 56 52 47 47 49 51 51 51 51 50 49 49 49 51 53 52 51 50 48 46 46 48 48 47 46
32 35 38 40 41 42 41 41 42 42 39 36 34 33 33 33 34 34 35 36 36 34 33 32 32 31 31 31 34 37 37 36 39 42 43 44 47 48 48 49 50 46 42 40 40 41 42 41 40 40 41 42 45 49 51 52 54 55 56 58 59 56 51 48 49 51 53 53 53 52 52 51 50 51 51 52 52 51 48 46 45 44 45 46 46 46 45
35 38 41 42 42 42 41 41 40 40 37 35 34 34 34 35 35 36 37 36 33 31 32 32 32 33 35 36 37 37 35 36 42 46 46 45 47 47 45 46 46 43 41 41 43 43 41 39 40 42 43 44 48 51 52 54 57 59 59 57 55 51 48 50 54 56 55 54 53 52 51 51 51 51 51 51 49 47 45 45 44 43 43 44 44 44 43
39 40 42 42 41 41 41 39 37 37 36 36 36 36 36 36 37 38 37 34 31 31 32 33 34 37 38 37 37 38 38 40 44 46 44 42 44 45 45 45 44 43 44 45 44 40 38 38 41 44 46 48 50 51 51 53 57 58 56 53 51 50 52 55 57 56 55 54 53 52 51 50 49 49 49 48 47 46 46 45 43 41 41 42 41 41 40